Location: Auckland
(36.8670°S, 174.7670°E)
Time: 22:18:16
(UTC+12:00)

A-11 Canister half - Pass Details

Date: 29 July 2019
Orbit: 1526 x 1682 km, 47.3° (Epoch: 25 August)

Event Time Altitude Azimuth Distance (km) Brightness Sun altitude
Rises 08:36:41 0° 273° (W) 4,689 11.1 12.1°
Reaches altitude 10° 08:39:52 10° 267° (W) 3,717 10.6 12.7°
Maximum altitude 08:48:56 50° 193° (SSW) 1,935 9.4 14.1°
Drops below altitude 10° 08:58:16 10° 119° (ESE) 3,821 11.4 15.6°
Sets 09:01:36 0° 113° (ESE) 4,829 12.0 16.1°
